Lid_Strength_Index
11 11 10 10 10 10 10 9 8 8 8 8 8 8 9 8 8 8 9 9 9 9 9 9 10 10 10 10 10 10 10 10 8 9 8 8 5 4 3 3 2 2 2
12 12 11 11 10 10 9 8 9 9 8 8 8 9 9 9 9 8 9 9 9 9 10 10 10 10 10 10 10 10 10 10 9 10 10 9 6 4 4 1 1 0 2
12 12 12 11 10 9 8 9 9 9 9 9 9 9 9 9 9 8 9 9 10 10 10 10 10 10 10 11 10 10 10 11 9 8 10 10 11 10 3 4 2 1 1
12 12 12 12 10 8 8 9 9 9 9 9 9 10 10 10 9 9 9 10 10 10 10 10 11 10 10 11 10 10 10 10 11 9 8 8 9 11 11 6 6 5 4
12 12 12 10 9 8 8 8 9 9 10 10 10 10 10 10 9 10 10 10 10 10 10 10 11 11 11 11 11 11 11 10 11 10 9 9 8 9 10 12 9 8 8
12 12 11 9 9 8 8 8 9 10 10 10 11 11 11 10 11 10 10 10 11 10 10 11 11 11 11 11 11 10 11 11 10 10 9 9 10 10 11 11 11 12 9
12 11 10 9 9 9 9 9 10 10 10 10 11 12 11 11 11 11 11 11 11 11 11 11 11 11 11 11 11 11 11 11 11 10 9 8 8 8 9 11 12 13 12
11 10 10 9 9 9 9 10 10 10 10 10 11 11 11 11 11 11 12 11 11 12 12 12 11 11 11 11 11 11 11 11 11 10 10 9 8 8 9 10 12 12 12
11 11 10 10 10 9 10 10 10 10 10 10 10 11 11 11 11 12 11 11 12 12 12 12 12 11 11 11 11 11 11 11 11 11 10 9 8 8 9 9 10 12 16
11 11 10 10 10 10 10 10 10 10 10 10 10 11 11 11 12 12 12 12 12 12 12 12 12 11 11 11 11 11 11 11 11 11 10 10 9 8 9 9 9 13 16
11 11 11 10 10 10 10 10 10 10 10 10 10 10 11 11 12 12 11 12 12 12 12 12 12 12 11 11 11 11 11 11 11 11 11 10 9 9 10 9 9 12 15
11 11 11 11 11 10 10 10 10 10 10 10 10 11 11 12 12 11 11 12 12 12 12 12 12 11 11 11 11 11 11 11 12 12 11 11 10 10 10 10 10 11 14
12 12 11 11 11 10 10 10 10 10 11 11 11 11 11 11 11 11 11 11 11 11 11 11 12 11 11 11 11 11 11 11 11 11 12 11 11 11 11 11 10 10 13
12 13 13 11 11 11 11 11 11 11 11 11 11 11 11 10 10 10 10 10 11 11 11 12 12 12 12 12 12 12 11 11 11 11 11 11 11 11 11 11 10 10 12
13 12 12 11 11 11 11 11 11 11 11 11 11 10 10 10 10 10 10 10 11 11 11 12 11 11 11 12 11 11 11 12 11 11 11 11 11 10 11 11 11 11 12
13 13 13 12 12 11 11 11 11 10 9 10 10 9 9 9 10 10 10 10 11 11 11 11 11 11 11 10 9 9 10 10 11 11 11 11 11 11 10 11 10 10 13
12 12 12 12 12 11 10 11 10 9 9 9 9 9 9 10 10 9 10 10 10 10 10 10 10 10 10 9 8 8 9 9 10 10 11 11 11 11 11 11 10 10 9
12 11 11 11 10 9 10 9 9 10 10 10 9 9 9 10 9 9 9 9 9 9 9 9 9 9 9 8 8 8 9 9 9 9 10 11 10 11 12 12 11 11 10
11 11 10 11 11 11 9 10 10 9 9 9 9 9 9 9 9 9 9 8 8 8 8 8 8 8 8 7 7 8 9 10 10 9 10 10 10 11 11 12 12 12 11
9 10 9 10 11 9 8 9 9 9 9 9 9 8 8 9 9 8 8 8 7 8 8 8 7 7 8 6 6 7 9 10 10 10 10 9 10 10 11 12 12 13 12
9 8 8 9 9 9 9 9 9 9 8 8 8 8 7 8 8 8 8 8 8 8 8 8 8 8 7 7 6 6 8 9 10 10 10 10 9 10 11 11 11 11 11
8 8 9 10 9 9 10 10 10 8 7 7 7 7 7 7 8 9 9 9 9 9 9 9 8 8 7 6 6 6 6 7 9 10 10 9 9 10 11 11 10 9 10
9 9 10 10 10 9 9 10 8 6 6 7 7 7 8 8 9 10 10 10 9 9 9 9 9 8 7 7 6 6 6 7 8 8 8 8 9 11 12 11 11 9 10
10 9 10 10 10 8 7 7 7 7 7 8 8 8 9 9 9 9 9 9 10 9 9 9 9 8 8 8 7 7 7 7 8 8 8 9 9 10 12 12 12 10 10
8 8 9 9 9 8 7 7 7 7 8 9 9 10 10 10 11 10 10 10 9 9 9 9 8 8 8 7 6 6 7 8 8 9 10 11 12 13 13 12 13 11 10
8 9 10 10 9 9 9 9 9 9 10 10 11 11 11 11 11 10 10 8 8 7 7 6 7 6 6 5 5 5 6 6 7 9 10 11 12 14 13 13 13 11 11